Regional Weather Roundup
Issued by NWS Cleveland, OH

Home | Current Version | Previous Version | Graphics & Text | Print | Product List | Glossary On
Versions: 1 2 3 4 5 6 7 8 9 10 11 12 13 14 15 16 17 18 19 20 21 22 23 24 25 26 27 28 29 30 31 32 33 34 35 36 37 38 39 40 41 42 43 44 45 46 47 48 49 50
000
ASUS41 KCLE 202200
RWRCLE
OHIO REGIONAL WEATHER ROUNDUP
NATIONAL WEATHER SERVICE WILMINGTON, OH
600 PM EDT SAT SEP 20 2014

NOTE: "FAIR" INDICATES FEW OR NO CLOUDS BELOW 12,000 FEET WITH NO
SIGNIFICANT WEATHER AND/OR OBSTRUCTIONS TO VISIBILITY.

OHZ001>008-015>018-024>027-034-035-043-044-202300-
   NORTHWEST OHIO

CITY           SKY/WX    TMP DP  RH WIND       PRES   REMARKS
DEFIANCE       MOSUNNY   79  60  52 SW13G24   29.84S
FINDLAY        SUNNY     80  58  46 SW16G28   29.86F
TOLEDO EXPRESS MOSUNNY   78  59  51 SW8       29.84F
TOLEDO METCALF MOSUNNY   80  57  45 SW16G25   29.85S
LIMA           SUNNY     79  59  50 SW14G24   29.89F
$$

OHZ009>014-019>023-028>033-038-089-202300-
   NORTHEAST OHIO

CITY           SKY/WX    TMP DP  RH WIND       PRES   REMARKS
CLE-HOPKINS    MOSUNNY   77  60  55 SW16G22   29.89F
CLE-LAKEFRONT  LGT RAIN  80  60  50 S18G33    29.86F
CUY CO. ARPT   MOSUNNY   79  63  57 SW17      29.89F
LORAIN-ELYRIA  MOSUNNY   82  58  43 SW18G26   29.88F
ASHTABULA      MOSUNNY   75  61  61 SW14      29.92S
AKRON-CANTON   MOSUNNY   77  61  57 S17G24    29.93F
WOOSTER        NOT AVBL
MANSFIELD      MOSUNNY   78  58  49 S20G30    29.91F
YOUNGSTOWN     MOSUNNY   75  61  61 S15G24    29.94F
$$

OHZ042-051>053-060>062-070>072-077>081-202300-
  SOUTHWEST OHIO

CITY           SKY/WX    TMP DP  RH WIND       PRES   REMARKS
CINC-COVINGTON PTSUNNY   80  62  54 SW12G20   29.96F
CINC-LUNKEN    MOSUNNY   80  63  55 SW15G21   29.94F
HAMILTON       SUNNY     81  64  56 SW8G20    29.94F
DAYTON         NOT AVBL
WRIGHT-PAT AFB MOSUNNY   80  63  54 S15       29.92F
DAYTON GENERAL SUNNY     79  62  56 SW16G22   29.93F
WILMINGTON     MOSUNNY   78  61  55 SW15      29.94F
$$

OHZ036-037-039>041-045>050-054>059-063>069-073>076-082>088-202300-
  CENTRAL AND SOUTHEAST OHIO

CITY           SKY/WX    TMP DP  RH WIND       PRES   REMARKS
COLUMBUS       MOSUNNY   83  59  44 S13G21    29.93F
OSU AIRPORT    SUNNY     80  59  48 SW20G25   29.93F
BOLTON FIELD   MOSUNNY   79  63  57 SW15G22   29.94F
RICKENBACK AFB NOT AVBL
NEWARK         MOSUNNY   80  60  50 SW13G21   29.93F
MARION         SUNNY     79  58  48 SW16G26   29.90F
LANCASTER      MOSUNNY   81  61  50 SW12      29.95F
ZANESVILLE     MOSUNNY   79  61  53 S14       29.96F
NEW PHILLY     MOSUNNY   77  63  61 S7        29.96F
$$



USA.gov is the U.S. government's official web portal to all federal, state and local government web resources and services.